Weather History for Springfield, MO

Change the Weather History Date:

Friday, September 30, 2011

  Actual Average Record
Temperature  
Mean Temperature 58 °F 63 °F  
Max Temperature 70 °F 74 °F 91 °F (1979)
Min Temperature 45 °F 52 °F 31 °F (1984)
Degree Days  
Heating Degree Days 7 4  
Month to date heating degree days 93 52  
Since 1 July heating degree days 93 55  
Cooling Degree Days 0 2  
Month to date cooling degree days 114 173  
Year to date cooling degree days 1792 1359  
Growing Degree Days 8 (Base 50)    
Moisture  
Dew Point 40 °F    
Average Humidity 58    
Maximum Humidity 82    
Minimum Humidity 33    
Precipitation  
Precipitation 0.00 in 0.14 in 3.85 in (1986)
Month to date precipitation 4.05 4.61  
Year to date precipitation 31.21 34.72  
Snow  
Snow 0.00 in - - ()
Month to date snowfall 0.0  
Since 1 July snowfall 0.0  
Since 1 September snowfall 0.0  
Snow Depth 0.00 in    
Sea Level Pressure  
Sea Level Pressure 30.17 in    
Wind  
Wind Speed 7 mph (NW)    
Max Wind Speed 16 mph    
Max Gust Speed 20 mph    
Visibility 10 miles    
Events      
T = Trace of Precipitation, MM = Missing Value Source: NWS Daily Summary

Daily Weather History Graph

Daily Weather History Graph

Search for Another Location

Airport:

Trip Planner

Search our weather history database for the weather conditions in past years. The results will help you decide how hot, cold, wet, or windy it might be!

Date:

Astronomy

Sep. 30, 2011 Rise Set
Actual Time 7:07 AM CDT 6:58 PM CDT
Civil Twilight 6:41 AM CDT 7:24 PM CDT
Nautical Twilight 6:11 AM CDT 7:54 PM CDT
Astronomical Twilight 5:41 AM CDT 8:25 PM CDT
Moon 10:59 AM CDT (9/30) 9:08 PM CDT (9/30)
Length of Visible Light 12h 42m
Length of Day
11h 50m
Waxing Crescent, 15% of the Moon is Illuminated
Sep 30
Waxing Crescent
Oct 3
First Quarter
Oct 11
Full
Oct 19
Last Quarter
Oct 26
New

Hourly Weather History & Observations

Time (CDT) Temp. Windchill Dew Point Humidity Pressure Visibility Wind Dir Wind Speed Gust Speed Precip Events Conditions
12:52 AM 54.0 °F - 37.0 °F 53% 30.11 in 10.0 mi NNW 8.1 mph - N/A   Clear
1:52 AM 53.1 °F - 36.0 °F 52% 30.13 in 10.0 mi NW 5.8 mph - N/A   Clear
2:52 AM 53.1 °F - 36.0 °F 52% 30.13 in 10.0 mi NW 6.9 mph - N/A   Clear
3:52 AM 50.0 °F - 37.9 °F 63% 30.14 in 10.0 mi NW 6.9 mph - N/A   Clear
4:52 AM 48.9 °F - 37.9 °F 66% 30.15 in 10.0 mi NW 6.9 mph - N/A   Clear
5:52 AM 46.0 °F 41.9 °F 39.0 °F 76% 30.17 in 10.0 mi NNW 8.1 mph - N/A   Clear
6:52 AM 48.0 °F - 37.9 °F 68% 30.18 in 10.0 mi NW 6.9 mph - N/A   Clear
7:52 AM 46.4 °F 42.9 °F 41.0 °F 81% 30.20 in 10.0 mi NW 6.9 mph - N/A   Clear
8:52 AM 55.0 °F - 42.1 °F 62% 30.21 in 10.0 mi NNW 11.5 mph - N/A   Clear
9:52 AM 59.0 °F - 43.0 °F 55% 30.23 in 10.0 mi North 10.4 mph - N/A   Clear
10:52 AM 62.1 °F - 43.0 °F 50% 30.24 in 10.0 mi North 10.4 mph - N/A   Clear
11:52 AM 64.9 °F - 44.1 °F 47% 30.25 in 10.0 mi NNW 8.1 mph - N/A   Clear
12:52 PM 66.2 °F - 41.0 °F 40% 30.24 in 10.0 mi WNW 6.9 mph - N/A   Clear
1:52 PM 69.1 °F - 39.9 °F 35% 30.20 in 10.0 mi NNW 12.7 mph 19.6 mph N/A   Clear
2:52 PM 69.8 °F - 41.0 °F 35% 30.19 in 10.0 mi NW 9.2 mph 18.4 mph N/A   Clear
3:52 PM 70.0 °F - 41.0 °F 35% 30.16 in 10.0 mi NNW 10.4 mph - N/A   Clear
4:52 PM 70.0 °F - 42.1 °F 36% 30.14 in 10.0 mi NW 8.1 mph - N/A   Clear
5:52 PM 68.0 °F - 41.0 °F 37% 30.14 in 10.0 mi WNW 6.9 mph - N/A   Clear
6:52 PM 63.0 °F - 43.0 °F 48% 30.13 in 10.0 mi NW 4.6 mph - N/A   Clear
7:52 PM 60.1 °F - 41.0 °F 49% 30.13 in 10.0 mi WNW 4.6 mph - N/A   Clear
8:52 PM 57.9 °F - 41.0 °F 53% 30.14 in 10.0 mi NW 4.6 mph - N/A   Clear
9:52 PM 55.9 °F - 41.0 °F 57% 30.14 in 10.0 mi WNW 3.5 mph - N/A   Clear
10:52 PM 53.1 °F - 41.0 °F 64% 30.15 in 10.0 mi Calm Calm - N/A   Clear
11:52 PM 50.0 °F - 39.2 °F 66% 30.16 in 10.0 mi Calm Calm - N/A   Clear